Location: Glendale
(37.4556°N, 88.6714°W)
Time: 20:16:27
(UTC+00:00)

Shenzhou-11 Module - Pass Details

Date: 08 December 2019
Orbit: 301 x 315 km, 42.8° (Epoch: 26 January)

Event Time Altitude Azimuth Distance (km) Brightness Sun altitude
Rises 00:08:52 0° 289° (WNW) 2,068 6.7 -17.8°
Reaches altitude 10° 00:11:04 10° 303° (WNW) 1,231 5.2 -18.3°
Enters shadow 00:12:46 22° 337° (NNW) 756 3.6 -18.6°
